SCP
0 0 0 0 0 0 0 0 0 0 0 0 0 0 0 0 0 0 0 0 0 0 0 0 0 0 0 0 0 0 -0 -0 0 0 0 0 0 0 0 0 0 0 0 0 0 0 0 0 0 0 0 0 -0 0
0 0 0 0 0 0 0 0 0 0 0 0 0 0 0 0 0 0 0 0 0 0 0 0 0 0 0 0 0 0 -0 -0 -0 -0 -0 -0 0 0 0 0 0 0 0 0 0 0 0 0 1 0 0 0 0 0
0 0 0 0 0 0 0 0 0 0 0 0 0 0 0 0 0 0 0 0 0 0 0 0 0 0 0 0 0 0 0 0 0 0 0 0 -0 -0 0 0 0 0 0 0 0 0 0 0 0 0 0 0 0 0
0 0 0 0 0 0 0 0 0 0 0 0 0 0 0 0 0 0 0 0 0 0 0 0 -0 -0 0 -0 0 0 0 0 0 -0 -0 0 0 0 0 0 0 0 0 0 0 0 0 0 0 0 0 0 0 0
0 0 0 0 0 0 0 0 0 0 0 0 0 0 0 0 0 0 0 0 0 0 0 0 0 0 -0 0 0 0 0 -0 -0 -0 -0 0 0 0 0 0 0 0 0 0 0 0 0 0 0 0 0 0 0 -0
0 0 0 0 0 0 0 0 0 0 0 0 0 0 0 0 0 0 0 0 0 0 0 0 0 0 -0 0 0 0 0 0 -0 -0 -0 -0 0 0 0 0 0 0 0 0 0 0 0 0 0 0 0 0 0 0
0 0 0 0 0 0 0 0 0 0 0 0 0 0 0 0 0 0 0 0 0 0 0 0 0 0 0 0 0 0 0 0 -0 -0 -0 -0 0 0 0 0 0 0 0 0 0 0 0 0 0 0 0 0 0 0
0 0 0 0 0 0 0 0 0 0 0 0 0 0 0 0 0 0 0 0 0 0 0 0 0 0 0 0 0 0 0 0 0 -0 -0 -0 0 0 0 0 0 0 0 0 0 0 0 0 0 0 0 0 0 0
0 0 0 0 0 0 0 0 0 0 0 0 0 0 0 0 0 0 0 0 0 0 0 0 0 0 -0 0 0 0 0 0 0 -0 -0 -0 -0 0 0 0 0 0 0 0 0 0 0 0 0 0 0 0 0 0
0 0 0 0 0 0 0 0 0 0 0 0 0 0 0 0 0 0 0 0 0 0 0 0 0 -0 0 0 0 0 0 0 0 0 -0 -0 -0 -0 0 0 0 0 0 0 0 0 0 0 0 0 0 0 0 0
0 0 0 0 0 0 0 0 0 0 0 0 0 0 0 0 0 0 0 0 0 0 0 0 0 0 0 0 0 0 0 0 0 0 -0 -0 -0 -0 0 -0 -0 0 0 0 0 0 0 0 0 0 0 0 0 0
0 0 0 0 0 0 0 0 0 0 0 0 0 0 0 0 0 0 0 0 0 0 0 0 0 0 0 0 0 0 0 0 0 0 0 -0 -0 -0 0 0 0 0 0 0 0 0 0 0 0 0 0 0 0 0
0 0 0 0 0 0 0 0 0 0 0 0 0 0 0 0 0 0 0 0 0 0 0 0 0 0 0 0 0 0 0 0 0 0 0 0 0 -0 -0 -0 0 0 0 0 0 0 0 0 0 0 0 0 0 0
0 0 0 0 0 0 0 0 0 0 0 0 0 0 0 0 0 0 0 0 0 0 0 0 0 0 0 0 0 0 0 0 0 0 0 0 0 0 0 -0 -0 0 0 0 0 0 -0 -0 0 0 0 0 0 0
0 0 0 0 0 0 0 0 0 0 0 0 0 0 0 0 0 0 0 0 0 0 0 -0 0 0 0 0 0 0 0 0 0 0 0 0 -0 0 0 0 0 0 0 0 0 0 0 0 0 0 0 0 0 0
0 0 0 0 0 0 0 0 0 0 0 0 0 0 0 0 0 0 0 0 0 -0 0 0 0 0 0 0 0 0 0 0 0 0 0 0 0 0 -0 0 0 0 0 0 0 0 0 0 0 0 0 0 0 0
0 0 0 0 0 0 0 0 0 0 0 0 0 0 0 0 0 0 0 0 0 0 0 0 0 0 0 0 0 0 0 0 0 0 0 -0 -0 -0 -0 -0 -0 0 0 0 0 0 0 0 0 0 0 0 0 0
0 0 0 0 0 0 0 0 0 0 0 0 0 0 0 0 0 0 0 0 0 0 0 0 0 0 0 0 0 0 0 0 0 0 0 0 -0 0 -0 -0 -0 0 0 0 0 0 0 0 0 0 0 0 0 0
0 0 0 0 0 0 0 0 0 0 0 0 0 0 0 0 0 -0 0 0 0 0 0 0 0 0 0 0 0 0 0 0 0 0 0 0 0 0 0 0 0 0 0 0 0 0 0 0 0 0 0 0 0 0
0 0 0 0 0 0 0 0 0 0 0 0 0 0 0 -0 0 0 0 0 0 0 0 0 0 0 0 0 0 0 0 0 -0 -0 -0 -0 0 -0 -0 -0 0 0 0 0 0 0 0 0 0 0 -0 -0 0 0
0 0 0 0 0 0 0 0 0 0 0 0 0 0 0 0 0 0 0 0 0 0 0 0 0 0 0 0 0 0 0 -0 -0 -0 -0 -0 -0 -0 -0 0 0 0 0 0 0 0 0 0 0 -0 -0 -0 0 0
0 0 0 0 0 0 0 0 0 0 0 0 0 0 0 0 -0 0 0 0 0 0 0 0 0 0 0 0 0 0 0 -0 -0 -0 -0 -0 -0 -0 0 0 -0 0 0 -0 0 0 0 0 0 0 0 0 0 0
0 0 0 0 0 0 0 0 0 0 0 0 0 0 0 0 0 0 0 0 0 0 0 0 0 0 0 0 0 0 0 0 0 -0 -0 -0 0 0 0 0 0 0 0 0 0 -0 0 0 0 0 0 0 -0 -0
0 0 0 0 0 0 0 0 0 0 0 -0 0 -0 -0 0 0 0 0 0 0 0 0 0 0 0 0 0 0 0 0 0 0 -0 -0 0 0 0 -0 0 0 0 0 0 0 0 0 0 0 0 0 0 -0 -0
0 0 0 0 0 0 0 0 0 0 0 0 0 -0 -0 -0 -0 -0 0 0 -0 0 0 0 0 0 0 0 0 0 0 0 0 0 0 0 0 0 0 0 0 0 0 0 0 0 0 0 0 0 -0 -0 0 0
0 0 0 0 0 0 0 0 0 0 0 0 0 -0 -0 -0 -0 -0 -0 0 0 -0 0 0 0 0 0 0 0 0 0 0 0 0 0 0 0 0 0 0 0 0 0 0 0 0 0 0 0 -0 0 -0 -0 -0
0 0 0 0 0 0 0 0 0 0 0 0 0 -0 -0 -0 -0 0 0 0 0 0 0 0 0 0 0 0 0 0 0 0 0 0 0 0 0 0 0 0 0 0 0 -0 0 0 0 0 0 0 -0 -0 -0 -0
0 0 0 -0 0 0 0 0 0 0 0 0 0 -0 -0 -0 0 0 0 0 0 0 0 0 0 0 0 0 0 0 0 0 0 0 0 0 0 0 0 0 0 0 0 0 0 0 0 0 0 0 -0 -0 -0 -0
0 0 0 0 0 0 0 0 0 0 0 0 -0 0 0 0 0 0 0 0 0 0 0 0 0 0 0 0 0 0 0 0 0 0 0 0 0 0 0 0 0 0 0 0 0 0 -0 0 0 0 -0 -0 -0 -0
0 0 0 0 0 0 0 0 0 0 0 0 0 0 0 0 0 -0 0 0 0 0 0 0 0 0 0 0 0 0 0 0 0 0 0 0 0 0 0 0 0 0 0 0 0 0 0 0 0 0 0 -0 -0 -0
0 0 0 0 0 0 0 0 0 0 0 0 0 0 0 0 0 0 0 0 0 0 0 0 0 0 0 0 0 0 0 0 0 0 0 0 0 0 0 0 0 0 0 0 0 0 0 0 0 0 -0 -0 -0 -0
0 0 0 0 0 0 0 0 0 0 0 0 0 0 0 0 0 0 0 0 0 0 0 0 0 0 0 0 0 0 0 0 0 0 0 0 0 0 0 0 0 0 0 0 0 0 0 0 0 0 0 -0 -0 -0
0 0 0 0 0 0 0 0 0 0 0 0 0 0 0 0 0 0 0 0 0 0 0 0 0 0 0 0 0 0 0 0 0 0 0 0 0 0 0 0 0 0 0 0 0 0 0 0 0 0 0 0 -0 -0
Wind_Speed_500mb
65 67 69 71 68 62 62 61 57 55 56 60 53 52 48 45 44 38 22 9 18 22 65 25 23 48 53 36 8 40 18 24 11 15 8 8 4 8 4 10 9 5 7 6 6 8 6 49 30 7 11 72 70 65
64 67 69 69 66 65 65 63 60 56 53 52 47 46 45 42 42 41 32 22 19 31 61 73 53 45 45 37 36 31 13 12 11 6 5 6 6 6 14 5 12 6 9 5 1 3 14 40 6 15 59 70 67 78
69 68 68 68 68 68 67 68 63 52 51 46 43 45 40 38 39 41 44 33 24 29 53 16 17 28 21 25 30 20 9 8 5 8 6 5 6 7 9 9 6 13 23 4 2 11 15 56 39 57 58 61 49 51
64 65 66 70 71 71 70 65 57 50 47 48 48 46 41 36 39 39 44 35 12 16 12 23 52 21 13 11 15 11 9 10 8 13 7 4 5 18 7 6 8 10 19 16 5 10 12 40 39 42 62 63 48 44
62 65 69 70 71 68 64 60 53 51 46 46 48 44 38 37 38 38 40 18 12 13 9 35 51 4 19 11 8 10 1 9 9 7 5 4 8 9 7 4 7 22 7 7 8 16 8 28 27 51 66 68 70 68
66 69 69 64 59 57 55 52 51 45 46 44 42 40 36 37 37 33 6 4 10 17 14 9 27 27 16 19 11 13 5 12 11 10 2 3 7 14 4 5 17 36 34 16 8 22 29 29 51 56 74 74 61 67
63 60 58 55 54 52 51 49 47 42 47 45 38 36 31 31 35 21 12 8 20 15 9 13 13 17 9 20 10 11 21 13 9 9 5 5 11 10 5 5 22 34 37 30 17 11 32 48 37 60 70 71 66 65
52 52 53 53 52 49 47 45 42 41 43 38 34 29 30 31 36 37 9 20 28 18 12 6 9 15 14 9 6 17 21 12 8 9 7 6 7 9 5 17 12 17 29 36 31 33 32 39 57 64 67 65 65 60
49 51 52 51 48 44 41 37 40 42 37 33 23 21 29 14 6 9 12 9 21 17 9 10 6 7 10 5 12 4 9 4 14 5 6 9 5 6 4 11 20 30 26 28 35 36 35 39 40 46 59 64 70 65
47 49 49 46 45 44 36 34 36 31 20 14 11 7 8 7 12 14 8 9 15 13 16 13 20 14 19 18 2 5 5 8 5 5 14 6 3 10 15 19 21 24 35 36 45 40 37 42 43 41 43 45 50 52
44 45 45 44 38 32 30 31 26 17 8 5 3 7 9 9 7 8 10 15 18 10 16 16 32 18 13 7 4 7 4 4 7 6 6 5 4 7 19 34 38 35 28 29 41 42 40 39 38 36 34 30 29 27
43 43 41 33 29 28 29 26 18 16 11 3 10 18 12 8 13 10 7 10 12 9 19 6 10 12 6 4 5 7 5 4 5 19 7 7 9 28 31 34 30 23 24 28 28 32 30 30 30 27 28 29 25 17
40 37 29 27 25 25 22 14 15 16 10 5 4 6 11 12 3 10 10 7 5 10 20 37 1 2 4 8 7 4 6 3 36 8 5 5 38 39 36 36 32 25 26 25 22 20 18 17 19 19 16 12 8 16
34 26 26 25 27 21 11 12 13 13 8 4 8 7 8 10 10 10 13 11 10 3 11 25 19 5 6 3 5 4 8 6 3 4 6 13 42 42 37 38 35 33 27 24 21 19 21 18 17 18 17 13 14 13
26 28 23 25 21 16 16 18 16 15 6 9 11 9 12 26 30 19 22 8 5 5 20 18 5 3 2 5 6 3 7 3 6 5 7 41 51 49 42 34 39 37 31 26 22 19 17 20 19 15 11 12 12 12
25 25 21 17 15 18 20 17 14 10 5 10 16 11 28 22 20 14 14 11 4 12 9 2 3 4 7 6 5 6 4 1 2 8 43 56 52 45 44 39 33 32 26 22 21 20 16 19 15 5 3 3 2 1
20 19 16 12 17 20 21 21 14 11 11 12 16 29 38 39 28 22 12 10 25 9 2 2 4 8 4 3 3 4 3 5 33 45 50 54 52 50 44 38 41 34 29 25 21 16 14 9 11 5 7 5 5 7
21 18 17 16 26 25 29 16 10 10 14 21 24 33 39 32 29 29 31 17 9 1 9 8 4 5 4 2 1 6 22 26 41 49 51 51 49 46 43 41 33 30 28 24 14 15 16 10 14 8 0 11 10 12
26 22 16 30 37 23 13 14 12 10 20 29 36 40 34 33 22 23 30 15 8 10 17 7 4 4 1 5 17 24 29 36 42 46 53 49 47 46 40 35 34 29 20 20 23 13 6 10 11 3 11 10 7 8
29 26 27 35 39 12 8 10 15 13 14 15 26 26 29 24 30 19 10 9 11 8 8 7 6 1 2 10 19 28 31 45 53 48 44 45 39 40 38 39 35 28 29 25 13 6 3 5 7 5 13 8 7 4
28 29 32 33 31 23 8 8 12 15 19 14 20 21 17 23 13 11 14 12 8 4 2 5 11 11 12 16 21 28 39 44 49 55 51 45 39 39 35 35 33 34 31 21 19 18 14 6 5 6 19 13 8 7
31 34 23 33 13 13 14 17 14 8 8 18 32 21 13 14 16 17 10 9 9 12 16 19 19 18 15 19 30 30 32 31 35 40 45 45 46 38 38 41 37 34 40 28 33 24 28 12 3 14 18 18 11 10
29 24 10 16 11 10 16 18 10 10 7 7 9 8 8 11 10 12 9 10 9 15 20 24 20 15 22 25 17 30 32 32 36 41 41 43 36 36 39 40 37 30 32 37 32 26 21 10 4 7 16 18 19 21
25 20 13 11 20 10 12 13 13 12 11 15 7 8 2 5 13 9 3 8 19 27 30 24 18 23 28 22 24 38 31 27 27 32 29 29 29 30 28 35 31 22 27 36 36 30 21 17 9 6 8 21 21 20
12 14 10 9 14 12 9 9 16 14 12 12 18 10 4 4 3 4 6 11 26 26 24 20 18 19 25 26 23 25 21 18 22 27 22 18 24 25 24 19 27 24 32 33 34 28 31 32 23 20 15 18 19 18
10 18 15 15 15 12 10 7 14 18 17 11 7 4 9 4 8 4 3 20 27 29 24 20 21 19 18 22 26 20 19 16 10 10 16 21 17 28 28 29 20 28 31 31 31 33 36 25 30 30 25 22 26 25
9 14 20 21 15 17 8 19 16 10 11 10 7 9 7 7 5 5 13 16 27 24 17 22 18 16 17 16 17 15 15 19 21 17 14 8 13 9 21 28 28 20 30 28 25 28 40 29 27 31 26 26 24 27
16 11 17 20 28 13 10 13 10 11 9 10 7 10 7 2 4 10 11 14 23 26 26 23 15 17 18 14 12 11 17 18 15 15 12 11 8 7 3 11 19 26 28 28 26 31 41 28 30 30 31 33 28 33
14 16 13 8 20 22 16 8 9 11 15 23 6 3 5 10 18 18 19 24 25 27 27 25 16 17 16 13 7 13 17 14 19 24 21 17 17 13 15 14 17 18 16 26 29 35 38 22 37 33 33 35 26 20
20 24 16 18 20 16 16 18 16 14 7 10 20 37 35 21 20 26 30 29 26 25 23 22 21 11 13 18 18 15 10 5 10 9 10 19 24 25 29 27 21 19 25 24 21 42 25 24 32 33 38 38 34 30
24 15 24 27 26 29 20 10 6 12 13 19 36 35 25 23 28 28 26 25 23 20 18 17 15 11 15 19 19 17 14 7 13 15 17 10 18 25 30 31 23 26 28 27 33 38 36 31 34 32 39 48 44 39
17 12 13 18 18 10 15 17 6 8 23 31 28 35 33 18 7 10 22 22 16 21 22 20 20 14 12 13 19 21 16 14 16 21 18 20 24 25 23 24 35 34 31 33 31 33 39 40 41 40 38 42 45 46
29 29 27 19 9 10 15 14 8 6 9 9 7 10 8 13 9 14 17 22 23 24 21 24 27 27 25 23 19 18 20 22 25 26 27 28 28 31 32 30 32 34 34 36 40 41 41 41 40 40 40 40 38 41
Wind_Direction_500mb
299 301 308 314 316 319 323 327 326 321 321 321 324 322 329 329 332 334 347 354 312 288 293 291 297 299 301 303 309 312 357 7 344 20 360 347 339 332 317 34 46 50 323 40 26 34 23 345 343 78 170 146 160 161
299 301 305 310 312 316 319 321 321 321 320 317 316 319 322 322 328 326 325 301 264 280 273 304 305 294 277 283 271 300 13 24 360 342 353 300 308 354 316 69 354 66 29 106 125 171 339 346 27 54 137 140 149 152
296 299 303 305 308 310 314 316 317 315 316 317 314 316 313 313 322 321 316 329 331 306 309 306 351 319 291 289 301 280 8 39 15 350 306 300 333 345 358 21 7 356 18 81 342 31 22 11 56 100 119 110 111 124
292 295 298 301 305 308 311 312 311 313 314 313 311 310 306 309 317 315 311 317 262 287 281 292 312 318 263 258 297 272 342 28 62 31 9 339 328 7 355 42 39 350 312 334 1 13 1 352 33 107 117 127 106 120
291 294 296 300 302 305 307 308 305 310 310 310 308 306 304 305 311 315 313 312 172 237 296 296 326 269 270 275 321 221 202 102 97 53 12 11 339 347 345 64 33 338 353 355 43 28 104 1 32 122 122 130 153 156
290 292 297 300 302 304 307 305 308 306 313 309 310 307 303 302 311 329 332 76 167 241 291 303 296 299 270 246 274 221 132 117 105 109 76 46 11 344 15 60 356 351 13 93 75 53 64 37 80 108 117 123 130 137
289 294 297 300 302 304 306 303 302 306 307 303 305 294 290 294 296 280 246 204 200 198 259 290 285 269 277 310 195 172 142 103 123 111 102 91 15 48 25 42 345 10 39 72 73 36 56 55 59 92 108 115 123 124
291 294 297 301 304 303 301 300 304 304 309 305 296 289 287 288 288 291 296 236 200 237 252 268 268 267 252 281 283 178 145 146 79 119 102 83 36 52 47 348 0 7 50 59 67 95 97 98 101 97 113 123 117 110
292 297 300 300 300 299 296 298 300 305 301 296 296 297 288 278 246 279 253 216 192 204 281 247 277 281 281 290 21 306 121 99 160 101 86 94 4 46 300 349 52 64 61 89 86 89 97 98 92 97 108 111 117 113
293 296 298 298 295 293 289 294 298 301 294 278 289 272 288 204 250 274 229 193 195 215 228 255 250 270 289 293 326 295 222 135 122 107 112 82 88 291 185 109 95 77 77 102 78 65 81 84 94 107 108 109 109 114
292 297 296 292 293 292 291 298 295 290 236 253 308 257 278 324 293 242 233 199 188 220 220 244 219 237 289 55 355 270 242 173 124 178 120 127 140 138 88 150 114 83 85 91 91 89 91 87 84 87 91 101 111 113
294 296 294 293 289 283 280 286 262 206 191 213 279 299 285 222 235 246 223 216 193 227 185 276 193 250 324 46 254 268 234 280 147 149 118 135 140 155 135 115 109 117 102 86 79 87 101 99 97 101 98 90 81 84
297 296 291 289 279 275 281 264 217 199 206 252 287 263 217 230 291 225 210 256 241 4 27 343 229 90 5 11 291 262 303 240 135 160 103 100 152 166 155 143 134 129 124 124 122 112 108 110 114 106 98 89 148 179
298 289 283 281 276 273 228 196 191 192 189 208 225 259 234 213 229 207 254 286 66 50 73 289 294 92 354 303 261 280 251 93 221 125 108 148 159 159 155 152 145 141 135 127 129 133 121 120 111 108 116 151 196 210
283 276 278 281 276 233 194 179 186 189 156 242 238 234 233 248 290 288 302 319 317 294 192 223 284 193 271 265 263 314 286 74 40 137 152 156 154 157 159 152 147 143 137 136 135 136 141 151 156 148 166 203 237 264
267 267 273 267 234 200 182 181 177 162 238 242 237 265 279 288 297 351 327 319 71 162 233 54 337 276 200 231 242 235 0 59 115 118 143 152 153 161 161 161 156 148 148 142 141 137 131 166 187 209 249 250 253 154
249 248 263 255 191 177 170 146 157 210 233 235 240 245 258 278 284 293 222 323 290 246 297 239 231 233 261 243 215 52 91 108 115 131 145 153 157 161 158 157 152 148 143 140 137 134 132 195 215 236 335 20 66 98
222 236 239 199 175 170 183 200 217 239 243 248 263 267 272 268 265 266 279 234 260 106 31 294 285 267 237 294 65 118 125 130 141 145 149 153 155 153 155 152 151 146 145 149 148 131 142 193 234 269 247 114 103 114
226 216 209 181 169 174 197 212 222 261 246 253 257 260 274 281 273 289 280 256 223 220 133 252 311 268 293 57 135 139 140 136 138 145 153 157 158 160 161 159 158 161 146 145 151 156 144 221 268 285 130 118 107 89
211 190 178 179 185 198 224 222 200 248 267 263 272 269 271 271 275 266 222 272 260 192 194 181 210 311 210 119 140 153 145 151 143 139 145 154 162 164 165 167 169 164 172 176 179 193 127 50 22 114 141 147 170 175
202 189 188 195 209 228 258 261 230 246 277 276 276 286 277 276 281 301 292 273 242 207 173 186 146 147 153 133 145 151 154 157 158 163 159 162 167 165 170 176 181 185 197 189 186 192 199 227 323 122 143 151 162 176
190 176 179 192 204 211 248 238 238 267 265 261 287 272 270 282 271 247 238 173 201 200 200 210 182 180 179 167 153 154 157 159 159 163 171 169 177 183 181 187 197 201 204 199 202 188 199 215 39 144 169 175 183 187
166 170 172 177 212 230 255 230 231 231 244 261 245 234 237 227 220 184 206 203 191 207 180 168 172 177 177 166 178 173 160 169 160 164 172 178 188 192 200 197 198 215 214 189 187 194 203 208 119 115 171 173 163 159
161 170 189 206 203 242 237 205 216 241 255 244 253 252 213 191 171 200 217 149 158 148 140 141 156 151 160 163 133 158 164 159 156 168 180 192 187 196 201 198 194 205 191 184 185 187 190 188 165 158 139 154 143 153
169 194 204 225 218 231 228 209 209 219 230 250 240 252 170 194 213 246 142 145 158 154 145 146 155 162 165 170 164 157 144 167 173 173 173 188 190 200 213 184 192 198 200 194 192 184 174 182 174 183 179 162 171 181
201 207 200 211 206 211 211 225 202 214 233 251 243 182 173 207 204 144 101 161 162 155 151 155 161 160 175 183 180 188 196 188 178 188 197 217 226 227 218 208 209 199 207 208 204 186 186 185 186 198 205 195 195 204
217 216 204 227 228 216 237 232 225 216 224 208 213 178 185 210 150 94 117 119 143 163 172 165 156 168 159 156 160 174 189 192 195 203 172 140 174 221 224 212 206 209 202 207 196 196 190 185 195 201 204 204 196 193
232 257 218 231 215 213 234 250 205 205 216 242 169 206 197 113 107 136 147 159 152 155 156 154 159 177 174 195 191 181 170 169 193 210 223 180 163 183 182 204 208 207 213 199 187 190 202 216 188 202 200 200 205 203
227 218 191 239 241 219 226 230 236 217 233 236 192 121 90 90 141 139 154 160 149 149 155 145 134 138 139 128 135 169 167 177 202 188 185 201 204 173 159 162 174 173 197 220 228 216 210 238 194 201 208 209 220 207
225 210 225 216 231 225 221 228 249 222 259 121 118 112 107 113 134 130 142 145 150 155 145 158 156 167 176 180 173 168 135 184 197 148 128 190 207 206 199 207 217 226 225 217 218 202 193 199 196 206 208 212 213 214
217 230 239 241 251 241 210 261 217 191 206 141 137 129 128 132 97 131 151 162 159 164 152 167 174 170 181 161 162 149 160 204 233 237 232 218 241 232 217 217 222 211 207 209 206 212 219 228 221 213 212 211 212 220
195 210 239 233 236 179 152 151 172 135 116 115 123 129 129 127 115 143 123 143 169 184 183 169 174 140 159 176 177 179 190 213 220 254 251 223 221 230 218 222 231 228 222 212 205 209 216 217 216 213 211 216 217 217
204 234 245 243 169 149 149 121 151 168 125 124 120 137 133 157 152 199 193 182 182 194 204 215 221 222 195 200 212 223 233 245 254 261 262 260 252 247 241 236 229 227 225 227 226 225 222 221 217 213 219 220 220 226
Wind_Speed_850mb
65 67 69 71 68 62 62 61 57 55 56 60 53 52 48 45 44 38 22 9 18 22 65 25 23 48 53 36 8 40 18 24 11 15 8 8 4 8 4 10 9 5 7 6 6 8 6 49 30 7 11 72 70 65
64 67 69 69 66 65 65 63 60 56 53 52 47 46 45 42 42 41 32 22 19 31 61 73 53 45 45 37 36 31 13 12 11 6 5 6 6 6 14 5 12 6 9 5 1 3 14 40 6 15 59 70 67 78
69 68 68 68 68 68 67 68 63 52 51 46 43 45 40 38 39 41 44 33 24 29 53 16 17 28 21 25 30 20 9 8 5 8 6 5 6 7 9 9 6 13 23 4 2 11 15 56 39 57 58 61 49 51
64 65 66 70 71 71 70 65 57 50 47 48 48 46 41 36 39 39 44 35 12 16 12 23 52 21 13 11 15 11 9 10 8 13 7 4 5 18 7 6 8 10 19 16 5 10 12 40 39 42 62 63 48 44
62 65 69 70 71 68 64 60 53 51 46 46 48 44 38 37 38 38 40 18 12 13 9 35 51 4 19 11 8 10 1 9 9 7 5 4 8 9 7 4 7 22 7 7 8 16 8 28 27 51 66 68 70 68
66 69 69 64 59 57 55 52 51 45 46 44 42 40 36 37 37 33 6 4 10 17 14 9 27 27 16 19 11 13 5 12 11 10 2 3 7 14 4 5 17 36 34 16 8 22 29 29 51 56 74 74 61 67
63 60 58 55 54 52 51 49 47 42 47 45 38 36 31 31 35 21 12 8 20 15 9 13 13 17 9 20 10 11 21 13 9 9 5 5 11 10 5 5 22 34 37 30 17 11 32 48 37 60 70 71 66 65
52 52 53 53 52 49 47 45 42 41 43 38 34 29 30 31 36 37 9 20 28 18 12 6 9 15 14 9 6 17 21 12 8 9 7 6 7 9 5 17 12 17 29 36 31 33 32 39 57 64 67 65 65 60
49 51 52 51 48 44 41 37 40 42 37 33 23 21 29 14 6 9 12 9 21 17 9 10 6 7 10 5 12 4 9 4 14 5 6 9 5 6 4 11 20 30 26 28 35 36 35 39 40 46 59 64 70 65
47 49 49 46 45 44 36 34 36 31 20 14 11 7 8 7 12 14 8 9 15 13 16 13 20 14 19 18 2 5 5 8 5 5 14 6 3 10 15 19 21 24 35 36 45 40 37 42 43 41 43 45 50 52
44 45 45 44 38 32 30 31 26 17 8 5 3 7 9 9 7 8 10 15 18 10 16 16 32 18 13 7 4 7 4 4 7 6 6 5 4 7 19 34 38 35 28 29 41 42 40 39 38 36 34 30 29 27
43 43 41 33 29 28 29 26 18 16 11 3 10 18 12 8 13 10 7 10 12 9 19 6 10 12 6 4 5 7 5 4 5 19 7 7 9 28 31 34 30 23 24 28 28 32 30 30 30 27 28 29 25 17
40 37 29 27 25 25 22 14 15 16 10 5 4 6 11 12 3 10 10 7 5 10 20 37 1 2 4 8 7 4 6 3 36 8 5 5 38 39 36 36 32 25 26 25 22 20 18 17 19 19 16 12 8 16
34 26 26 25 27 21 11 12 13 13 8 4 8 7 8 10 10 10 13 11 10 3 11 25 19 5 6 3 5 4 8 6 3 4 6 13 42 42 37 38 35 33 27 24 21 19 21 18 17 18 17 13 14 13
26 28 23 25 21 16 16 18 16 15 6 9 11 9 12 26 30 19 22 8 5 5 20 18 5 3 2 5 6 3 7 3 6 5 7 41 51 49 42 34 39 37 31 26 22 19 17 20 19 15 11 12 12 12
25 25 21 17 15 18 20 17 14 10 5 10 16 11 28 22 20 14 14 11 4 12 9 2 3 4 7 6 5 6 4 1 2 8 43 56 52 45 44 39 33 32 26 22 21 20 16 19 15 5 3 3 2 1
20 19 16 12 17 20 21 21 14 11 11 12 16 29 38 39 28 22 12 10 25 9 2 2 4 8 4 3 3 4 3 5 33 45 50 54 52 50 44 38 41 34 29 25 21 16 14 9 11 5 7 5 5 7
21 18 17 16 26 25 29 16 10 10 14 21 24 33 39 32 29 29 31 17 9 1 9 8 4 5 4 2 1 6 22 26 41 49 51 51 49 46 43 41 33 30 28 24 14 15 16 10 14 8 0 11 10 12
26 22 16 30 37 23 13 14 12 10 20 29 36 40 34 33 22 23 30 15 8 10 17 7 4 4 1 5 17 24 29 36 42 46 53 49 47 46 40 35 34 29 20 20 23 13 6 10 11 3 11 10 7 8
29 26 27 35 39 12 8 10 15 13 14 15 26 26 29 24 30 19 10 9 11 8 8 7 6 1 2 10 19 28 31 45 53 48 44 45 39 40 38 39 35 28 29 25 13 6 3 5 7 5 13 8 7 4
28 29 32 33 31 23 8 8 12 15 19 14 20 21 17 23 13 11 14 12 8 4 2 5 11 11 12 16 21 28 39 44 49 55 51 45 39 39 35 35 33 34 31 21 19 18 14 6 5 6 19 13 8 7
31 34 23 33 13 13 14 17 14 8 8 18 32 21 13 14 16 17 10 9 9 12 16 19 19 18 15 19 30 30 32 31 35 40 45 45 46 38 38 41 37 34 40 28 33 24 28 12 3 14 18 18 11 10
29 24 10 16 11 10 16 18 10 10 7 7 9 8 8 11 10 12 9 10 9 15 20 24 20 15 22 25 17 30 32 32 36 41 41 43 36 36 39 40 37 30 32 37 32 26 21 10 4 7 16 18 19 21
25 20 13 11 20 10 12 13 13 12 11 15 7 8 2 5 13 9 3 8 19 27 30 24 18 23 28 22 24 38 31 27 27 32 29 29 29 30 28 35 31 22 27 36 36 30 21 17 9 6 8 21 21 20
12 14 10 9 14 12 9 9 16 14 12 12 18 10 4 4 3 4 6 11 26 26 24 20 18 19 25 26 23 25 21 18 22 27 22 18 24 25 24 19 27 24 32 33 34 28 31 32 23 20 15 18 19 18
10 18 15 15 15 12 10 7 14 18 17 11 7 4 9 4 8 4 3 20 27 29 24 20 21 19 18 22 26 20 19 16 10 10 16 21 17 28 28 29 20 28 31 31 31 33 36 25 30 30 25 22 26 25
9 14 20 21 15 17 8 19 16 10 11 10 7 9 7 7 5 5 13 16 27 24 17 22 18 16 17 16 17 15 15 19 21 17 14 8 13 9 21 28 28 20 30 28 25 28 40 29 27 31 26 26 24 27
16 11 17 20 28 13 10 13 10 11 9 10 7 10 7 2 4 10 11 14 23 26 26 23 15 17 18 14 12 11 17 18 15 15 12 11 8 7 3 11 19 26 28 28 26 31 41 28 30 30 31 33 28 33
14 16 13 8 20 22 16 8 9 11 15 23 6 3 5 10 18 18 19 24 25 27 27 25 16 17 16 13 7 13 17 14 19 24 21 17 17 13 15 14 17 18 16 26 29 35 38 22 37 33 33 35 26 20
20 24 16 18 20 16 16 18 16 14 7 10 20 37 35 21 20 26 30 29 26 25 23 22 21 11 13 18 18 15 10 5 10 9 10 19 24 25 29 27 21 19 25 24 21 42 25 24 32 33 38 38 34 30
24 15 24 27 26 29 20 10 6 12 13 19 36 35 25 23 28 28 26 25 23 20 18 17 15 11 15 19 19 17 14 7 13 15 17 10 18 25 30 31 23 26 28 27 33 38 36 31 34 32 39 48 44 39
17 12 13 18 18 10 15 17 6 8 23 31 28 35 33 18 7 10 22 22 16 21 22 20 20 14 12 13 19 21 16 14 16 21 18 20 24 25 23 24 35 34 31 33 31 33 39 40 41 40 38 42 45 46
29 29 27 19 9 10 15 14 8 6 9 9 7 10 8 13 9 14 17 22 23 24 21 24 27 27 25 23 19 18 20 22 25 26 27 28 28 31 32 30 32 34 34 36 40 41 41 41 40 40 40 40 38 41
Wind_Direction_850mb
299 301 308 314 316 319 323 327 326 321 321 321 324 322 329 329 332 334 347 354 312 288 293 291 297 299 301 303 309 312 357 7 344 20 360 347 339 332 317 34 46 50 323 40 26 34 23 345 343 78 170 146 160 161
299 301 305 310 312 316 319 321 321 321 320 317 316 319 322 322 328 326 325 301 264 280 273 304 305 294 277 283 271 300 13 24 360 342 353 300 308 354 316 69 354 66 29 106 125 171 339 346 27 54 137 140 149 152
296 299 303 305 308 310 314 316 317 315 316 317 314 316 313 313 322 321 316 329 331 306 309 306 351 319 291 289 301 280 8 39 15 350 306 300 333 345 358 21 7 356 18 81 342 31 22 11 56 100 119 110 111 124
292 295 298 301 305 308 311 312 311 313 314 313 311 310 306 309 317 315 311 317 262 287 281 292 312 318 263 258 297 272 342 28 62 31 9 339 328 7 355 42 39 350 312 334 1 13 1 352 33 107 117 127 106 120
291 294 296 300 302 305 307 308 305 310 310 310 308 306 304 305 311 315 313 312 172 237 296 296 326 269 270 275 321 221 202 102 97 53 12 11 339 347 345 64 33 338 353 355 43 28 104 1 32 122 122 130 153 156
290 292 297 300 302 304 307 305 308 306 313 309 310 307 303 302 311 329 332 76 167 241 291 303 296 299 270 246 274 221 132 117 105 109 76 46 11 344 15 60 356 351 13 93 75 53 64 37 80 108 117 123 130 137
289 294 297 300 302 304 306 303 302 306 307 303 305 294 290 294 296 280 246 204 200 198 259 290 285 269 277 310 195 172 142 103 123 111 102 91 15 48 25 42 345 10 39 72 73 36 56 55 59 92 108 115 123 124
291 294 297 301 304 303 301 300 304 304 309 305 296 289 287 288 288 291 296 236 200 237 252 268 268 267 252 281 283 178 145 146 79 119 102 83 36 52 47 348 0 7 50 59 67 95 97 98 101 97 113 123 117 110
292 297 300 300 300 299 296 298 300 305 301 296 296 297 288 278 246 279 253 216 192 204 281 247 277 281 281 290 21 306 121 99 160 101 86 94 4 46 300 349 52 64 61 89 86 89 97 98 92 97 108 111 117 113
293 296 298 298 295 293 289 294 298 301 294 278 289 272 288 204 250 274 229 193 195 215 228 255 250 270 289 293 326 295 222 135 122 107 112 82 88 291 185 109 95 77 77 102 78 65 81 84 94 107 108 109 109 114
292 297 296 292 293 292 291 298 295 290 236 253 308 257 278 324 293 242 233 199 188 220 220 244 219 237 289 55 355 270 242 173 124 178 120 127 140 138 88 150 114 83 85 91 91 89 91 87 84 87 91 101 111 113
294 296 294 293 289 283 280 286 262 206 191 213 279 299 285 222 235 246 223 216 193 227 185 276 193 250 324 46 254 268 234 280 147 149 118 135 140 155 135 115 109 117 102 86 79 87 101 99 97 101 98 90 81 84
297 296 291 289 279 275 281 264 217 199 206 252 287 263 217 230 291 225 210 256 241 4 27 343 229 90 5 11 291 262 303 240 135 160 103 100 152 166 155 143 134 129 124 124 122 112 108 110 114 106 98 89 148 179
298 289 283 281 276 273 228 196 191 192 189 208 225 259 234 213 229 207 254 286 66 50 73 289 294 92 354 303 261 280 251 93 221 125 108 148 159 159 155 152 145 141 135 127 129 133 121 120 111 108 116 151 196 210
283 276 278 281 276 233 194 179 186 189 156 242 238 234 233 248 290 288 302 319 317 294 192 223 284 193 271 265 263 314 286 74 40 137 152 156 154 157 159 152 147 143 137 136 135 136 141 151 156 148 166 203 237 264
267 267 273 267 234 200 182 181 177 162 238 242 237 265 279 288 297 351 327 319 71 162 233 54 337 276 200 231 242 235 0 59 115 118 143 152 153 161 161 161 156 148 148 142 141 137 131 166 187 209 249 250 253 154
249 248 263 255 191 177 170 146 157 210 233 235 240 245 258 278 284 293 222 323 290 246 297 239 231 233 261 243 215 52 91 108 115 131 145 153 157 161 158 157 152 148 143 140 137 134 132 195 215 236 335 20 66 98
222 236 239 199 175 170 183 200 217 239 243 248 263 267 272 268 265 266 279 234 260 106 31 294 285 267 237 294 65 118 125 130 141 145 149 153 155 153 155 152 151 146 145 149 148 131 142 193 234 269 247 114 103 114
226 216 209 181 169 174 197 212 222 261 246 253 257 260 274 281 273 289 280 256 223 220 133 252 311 268 293 57 135 139 140 136 138 145 153 157 158 160 161 159 158 161 146 145 151 156 144 221 268 285 130 118 107 89
211 190 178 179 185 198 224 222 200 248 267 263 272 269 271 271 275 266 222 272 260 192 194 181 210 311 210 119 140 153 145 151 143 139 145 154 162 164 165 167 169 164 172 176 179 193 127 50 22 114 141 147 170 175
202 189 188 195 209 228 258 261 230 246 277 276 276 286 277 276 281 301 292 273 242 207 173 186 146 147 153 133 145 151 154 157 158 163 159 162 167 165 170 176 181 185 197 189 186 192 199 227 323 122 143 151 162 176
190 176 179 192 204 211 248 238 238 267 265 261 287 272 270 282 271 247 238 173 201 200 200 210 182 180 179 167 153 154 157 159 159 163 171 169 177 183 181 187 197 201 204 199 202 188 199 215 39 144 169 175 183 187
166 170 172 177 212 230 255 230 231 231 244 261 245 234 237 227 220 184 206 203 191 207 180 168 172 177 177 166 178 173 160 169 160 164 172 178 188 192 200 197 198 215 214 189 187 194 203 208 119 115 171 173 163 159
161 170 189 206 203 242 237 205 216 241 255 244 253 252 213 191 171 200 217 149 158 148 140 141 156 151 160 163 133 158 164 159 156 168 180 192 187 196 201 198 194 205 191 184 185 187 190 188 165 158 139 154 143 153
169 194 204 225 218 231 228 209 209 219 230 250 240 252 170 194 213 246 142 145 158 154 145 146 155 162 165 170 164 157 144 167 173 173 173 188 190 200 213 184 192 198 200 194 192 184 174 182 174 183 179 162 171 181
201 207 200 211 206 211 211 225 202 214 233 251 243 182 173 207 204 144 101 161 162 155 151 155 161 160 175 183 180 188 196 188 178 188 197 217 226 227 218 208 209 199 207 208 204 186 186 185 186 198 205 195 195 204
217 216 204 227 228 216 237 232 225 216 224 208 213 178 185 210 150 94 117 119 143 163 172 165 156 168 159 156 160 174 189 192 195 203 172 140 174 221 224 212 206 209 202 207 196 196 190 185 195 201 204 204 196 193
232 257 218 231 215 213 234 250 205 205 216 242 169 206 197 113 107 136 147 159 152 155 156 154 159 177 174 195 191 181 170 169 193 210 223 180 163 183 182 204 208 207 213 199 187 190 202 216 188 202 200 200 205 203
227 218 191 239 241 219 226 230 236 217 233 236 192 121 90 90 141 139 154 160 149 149 155 145 134 138 139 128 135 169 167 177 202 188 185 201 204 173 159 162 174 173 197 220 228 216 210 238 194 201 208 209 220 207
225 210 225 216 231 225 221 228 249 222 259 121 118 112 107 113 134 130 142 145 150 155 145 158 156 167 176 180 173 168 135 184 197 148 128 190 207 206 199 207 217 226 225 217 218 202 193 199 196 206 208 212 213 214
217 230 239 241 251 241 210 261 217 191 206 141 137 129 128 132 97 131 151 162 159 164 152 167 174 170 181 161 162 149 160 204 233 237 232 218 241 232 217 217 222 211 207 209 206 212 219 228 221 213 212 211 212 220
195 210 239 233 236 179 152 151 172 135 116 115 123 129 129 127 115 143 123 143 169 184 183 169 174 140 159 176 177 179 190 213 220 254 251 223 221 230 218 222 231 228 222 212 205 209 216 217 216 213 211 216 217 217
204 234 245 243 169 149 149 121 151 168 125 124 120 137 133 157 152 199 193 182 182 194 204 215 221 222 195 200 212 223 233 245 254 261 262 260 252 247 241 236 229 227 225 227 226 225 222 221 217 213 219 220 220 226